CW2939 Malaga ES current weather conditions

sailwx.info

Wind from 143 at 3 knots gusting 6

Air temperature 18.9° C
Dewpoint 15.2° C

Last reported at 2018-Oct-17 17:04 UTC.
Time now 2018-Oct-17 18:17 UTC

Location: N 36°52' W 004°09'.
View on Google Maps.

See reports from other nearby stations

  
Tides and Currents Weather Stations Pressure Air Temp Water Temp Dewpoint Dewpoint Depression Visibility Wind Speed Wind Dir Waves Ship Positions
date/time (UTC)wind fromknots sea level pressurealtimeterstation pressurevisibilityair tempwater tempwave heightnotes
2018-Oct-17 17:04 143 3 gusting 6 18.9
2018-Oct-17 16:54 145 4 gusting 5 18.9
2018-Oct-17 16:49 145 2 gusting 5 19.4
2018-Oct-17 16:44 146 3 gusting 5 19.4
2018-Oct-17 16:39 137 4 gusting 6 19.4
2018-Oct-17 16:24 135 5 gusting 7 19.4
2018-Oct-17 16:14 137 5 gusting 7 20.0
2018-Oct-17 16:09 139 5 gusting 7 20.0
2018-Oct-17 15:59 150 5 gusting 10 20.0
2018-Oct-17 15:49 138 6 gusting 10 20.6
2018-Oct-17 15:44 136 5 gusting 8 20.6
2018-Oct-17 15:39 119 6 gusting 8 20.6
2018-Oct-17 15:34 153 3 gusting 8 20.6
2018-Oct-17 15:29 138 4 gusting 7 20.6
2018-Oct-17 15:24 136 1 gusting 8 20.6
2018-Oct-17 15:19 145 6 gusting 10 21.1
2018-Oct-17 15:14 128 5 gusting 8 21.1
2018-Oct-17 15:09 142 6 gusting 10 21.1
2018-Oct-17 15:04 154 5 gusting 10 21.1
2018-Oct-17 14:59 151 6 gusting 10 21.7
2018-Oct-17 14:54 153 5 gusting 10 21.7
2018-Oct-17 14:49 161 0 gusting 6 21.7
2018-Oct-17 14:44 155 3 gusting 7 21.7
2018-Oct-17 14:39 137 6 gusting 8 21.7
2018-Oct-17 14:29 137 3 gusting 6 21.7
2018-Oct-17 14:24 131 2 gusting 6 21.7
2018-Oct-17 14:19 141 4 gusting 10 21.7
2018-Oct-17 14:09 157 5 gusting 7 21.7
2018-Oct-17 14:04 144 5 gusting 8 21.7
2018-Oct-17 13:59 130 5 gusting 10 22.2
2018-Oct-17 13:54 164 1 gusting 6 21.7
2018-Oct-17 13:49 138 2 gusting 7 21.7
2018-Oct-17 13:44 142 4 gusting 7 21.7
2018-Oct-17 13:39 133 4 gusting 7 21.7
2018-Oct-17 13:24 122 6 gusting 11 21.1
2018-Oct-17 13:19 132 4 gusting 10 21.1
2018-Oct-17 13:14 132 6 gusting 8 21.1
2018-Oct-17 13:04 132 5 gusting 10 21.1
2018-Oct-17 12:59 146 8 gusting 12 21.1
2018-Oct-17 12:54 142 6 gusting 13 21.1
2018-Oct-17 12:49 120 7 gusting 13 21.1
2018-Oct-17 12:39 142 6 gusting 13 21.1
2018-Oct-17 12:29 139 8 gusting 13 21.1
2018-Oct-17 12:24 138 7 gusting 12 21.1
2018-Oct-17 12:14 140 9 gusting 13 21.7
2018-Oct-17 12:09 150 7 gusting 13 21.7
2018-Oct-17 12:04 129 6 gusting 12 21.7
2018-Oct-17 11:59 138 5 gusting 15 21.7
2018-Oct-17 11:54 129 7 gusting 10 21.7
2018-Oct-17 11:44 144 7 gusting 13 21.7
2018-Oct-17 11:39 131 6 gusting 12 21.7
2018-Oct-17 11:29 128 6 gusting 10 22.2
2018-Oct-17 11:24 136 7 gusting 11 22.2
2018-Oct-17 11:19 132 7 gusting 11 22.8
2018-Oct-17 11:14 135 6 gusting 10 23.3
2018-Oct-17 11:09 133 4 gusting 10 23.3
2018-Oct-17 11:04 135 4 gusting 7 23.3
2018-Oct-17 10:54 150 5 gusting 8 23.3
2018-Oct-17 10:49 159 2 gusting 6 23.3
2018-Oct-17 10:44 140 5 gusting 7 23.9
2018-Oct-17 10:39 148 2 gusting 5 23.9
2018-Oct-17 10:34 140 0 gusting 6 23.9
2018-Oct-17 10:29 136 1 gusting 5 23.9
2018-Oct-17 10:24 136 2 gusting 5 23.3
2018-Oct-17 10:14 137 2 gusting 5 23.3
2018-Oct-17 10:09 134 0 gusting 5 23.3
2018-Oct-17 10:04 134 2 gusting 6 23.3
2018-Oct-17 09:59 133 5 gusting 6 23.3
2018-Oct-17 09:54 135 3 gusting 6 23.3
2018-Oct-17 09:49 138 4 gusting 6 23.9
2018-Oct-17 09:44 165 4 gusting 5 24.4
2018-Oct-17 09:39 180 2 gusting 6 25.0
2018-Oct-17 09:29 289 0 gusting 2 24.4
2018-Oct-17 09:24 289 23.9
2018-Oct-17 09:19 289 23.3
2018-Oct-17 09:14 289 23.3
2018-Oct-17 09:04 289 22.8
2018-Oct-17 08:44 289 21.7
2018-Oct-17 08:39 289 21.1
2018-Oct-17 08:34 289 20.6
2018-Oct-17 08:29 289 20.0
2018-Oct-17 08:19 289 18.9
2018-Oct-17 08:14 289 18.3
2018-Oct-17 08:04 289 17.2
2018-Oct-17 07:59 289 0 gusting 2 16.7
2018-Oct-17 07:54 289 1 gusting 2 16.7
2018-Oct-17 07:44 289 1 gusting 2 16.1
2018-Oct-17 07:39 289 1 gusting 2 16.1
2018-Oct-17 07:29 289 15.6
2018-Oct-17 07:24 289 15.6
2018-Oct-17 07:19 289 15.0
2018-Oct-17 07:04 289 13.9
2018-Oct-17 06:49 288 1 gusting 2 13.9
2018-Oct-17 06:44 288 0 gusting 1 13.9
2018-Oct-17 06:39 288 13.9
2018-Oct-17 06:34 288 1 gusting 2 13.3
2018-Oct-17 06:29 288 1 gusting 4 13.3
2018-Oct-17 06:24 289 2 gusting 2 13.3
2018-Oct-17 06:14 288 13.3
2018-Oct-17 05:59 288 13.3
2018-Oct-17 05:54 288 2 gusting 4 13.9
2018-Oct-17 05:49 288 4 gusting 5 13.9
2018-Oct-17 05:44 289 1 gusting 2 13.3
2018-Oct-17 05:39 289 13.3
2018-Oct-17 05:34 289 13.3
2018-Oct-17 05:29 289 13.3
2018-Oct-17 05:24 289 13.3
2018-Oct-17 05:19 289 13.3
2018-Oct-17 05:14 289 1 gusting 2 13.3
2018-Oct-17 05:04 289 1 gusting 2 13.3
2018-Oct-17 04:54 289 1 gusting 4 13.3
2018-Oct-17 04:49 289 13.3
2018-Oct-17 04:44 289 13.3
2018-Oct-17 04:39 289 13.3
2018-Oct-17 04:29 289 0 gusting 2 13.3
2018-Oct-17 04:19 289 2 gusting 2 13.3
2018-Oct-17 04:14 289 1 gusting 2 13.3
2018-Oct-17 04:09 289 0 gusting 2 13.3
2018-Oct-17 04:04 289 13.9
2018-Oct-17 03:59 289 13.9
2018-Oct-17 03:49 289 13.9
2018-Oct-17 03:39 289 13.9
2018-Oct-17 03:29 289 13.9
2018-Oct-17 03:19 289 13.9
2018-Oct-17 03:09 289 13.9
2018-Oct-17 03:04 289 13.9
2018-Oct-17 02:59 289 13.9
2018-Oct-17 02:54 289 13.9
2018-Oct-17 02:44 289 13.3
2018-Oct-17 02:39 289 13.3
2018-Oct-17 02:34 289 13.3
2018-Oct-17 02:29 289 13.9
2018-Oct-17 02:24 289 13.9
2018-Oct-17 02:19 289 13.9
2018-Oct-17 02:04 289 0 gusting 4 13.9
2018-Oct-17 01:59 289 1 gusting 5 13.9
2018-Oct-17 01:44 250 1 gusting 4 13.9
2018-Oct-17 01:39 247 1 gusting 2 13.9
2018-Oct-17 01:34 246 13.9
2018-Oct-17 01:29 246 13.9
2018-Oct-17 01:24 246 13.9
2018-Oct-17 01:09 246 13.9
2018-Oct-17 00:59 246 13.9
2018-Oct-17 00:44 246 14.4
2018-Oct-17 00:39 246 14.4
2018-Oct-17 00:29 246 14.4
2018-Oct-17 00:19 246 14.4
2018-Oct-17 00:14 246 14.4
2018-Oct-17 00:04 246 14.4
2018-Oct-16 23:59 246 14.4
2018-Oct-16 23:49 246 14.4
2018-Oct-16 23:44 246 1 gusting 2 14.4
2018-Oct-16 23:39 244 2 gusting 2 14.4
2018-Oct-16 23:34 244 2 gusting 4 14.4
2018-Oct-16 23:19 240 0 gusting 2 14.4
2018-Oct-16 23:14 240 14.4
2018-Oct-16 23:09 240 1 gusting 2 15.0
2018-Oct-16 22:59 240 1 gusting 2 15.0
2018-Oct-16 22:54 240 0 gusting 2 15.0
2018-Oct-16 22:49 240 0 gusting 2 15.0
2018-Oct-16 22:44 240 15.0
2018-Oct-16 22:34 240 14.4
2018-Oct-16 22:29 240 15.0
2018-Oct-16 22:19 240 0 gusting 2 15.0
2018-Oct-16 22:14 240 1 gusting 2 15.0
2018-Oct-16 22:09 240 15.0
2018-Oct-16 21:59 211 2 gusting 4 15.0
2018-Oct-16 21:54 208 15.0
2018-Oct-16 21:39 208 15.0
2018-Oct-16 21:29 208 15.0
2018-Oct-16 21:24 208 15.6
2018-Oct-16 21:09 208 15.6
2018-Oct-16 21:04 208 15.6
2018-Oct-16 20:59 208 0 gusting 2 15.6
2018-Oct-16 20:54 208 1 gusting 2 15.6
2018-Oct-16 20:49 204 2 gusting 2 15.6
2018-Oct-16 20:44 198 1 gusting 2 15.6
2018-Oct-16 20:34 194 15.6
2018-Oct-16 20:29 194 16.1
2018-Oct-16 20:19 193 0 gusting 2 16.1
2018-Oct-16 20:14 192 1 gusting 2 16.1
2018-Oct-16 20:04 182 16.1
2018-Oct-16 19:59 182 16.1
2018-Oct-16 19:49 182 16.1
2018-Oct-16 19:44 182 16.7
2018-Oct-16 19:39 182 16.7
2018-Oct-16 19:34 182 16.7
2018-Oct-16 19:24 182 16.7
2018-Oct-16 19:19 182 17.2
2018-Oct-16 19:14 182 17.2
2018-Oct-16 19:09 182 17.2
2018-Oct-16 19:04 182 17.2
2018-Oct-16 18:59 182 17.2
2018-Oct-16 18:54 182 17.2
2018-Oct-16 18:49 182 17.2
2018-Oct-16 18:39 182 17.2
2018-Oct-16 18:19 182 17.2
2018-Oct-16 18:14 182 17.8
2018-Oct-16 18:04 182 17.8
2018-Oct-16 17:54 180 2 gusting 5 17.8
2018-Oct-16 17:34 134 18.3
2018-Oct-16 17:29 134 18.3
2018-Oct-16 17:19 134 18.3
2018-Oct-16 16:59 134 18.3
2018-Oct-16 16:34 135 1 gusting 2 18.9
2018-Oct-16 16:29 135 5 gusting 8 18.9
2018-Oct-16 16:19 149 4 gusting 6 18.9
2018-Oct-16 16:14 149 5 gusting 8 18.9
2018-Oct-16 16:09 142 4 gusting 5 18.9
2018-Oct-16 15:54 170 1 gusting 7 19.4
2018-Oct-16 15:49 181 0 gusting 2 19.4
2018-Oct-16 15:44 182 0 gusting 4 19.4
2018-Oct-16 15:29 185 1 gusting 6 19.4
2018-Oct-16 15:19 188 20.0
2018-Oct-16 15:14 179 1 gusting 5 20.0
2018-Oct-16 15:09 165 1 gusting 2 20.0
2018-Oct-16 15:04 163 1 gusting 4 20.0
2018-Oct-16 14:59 188 1 gusting 6 20.0
2018-Oct-16 14:54 196 2 gusting 6 20.6
2018-Oct-16 14:49 225 1 gusting 4 20.6
2018-Oct-16 14:44 239 2 gusting 6 20.6
2018-Oct-16 14:34 183 2 gusting 8 20.6
2018-Oct-16 14:24 142 2 gusting 7 20.6
2018-Oct-16 14:19 140 1 gusting 6 20.6
2018-Oct-16 14:04 169 1 gusting 6 20.6
2018-Oct-16 13:59 139 6 gusting 10 20.6
2018-Oct-16 13:54 135 6 gusting 10 20.6
2018-Oct-16 13:34 164 5 gusting 13 20.6
2018-Oct-16 13:29 129 6 gusting 12 20.6
2018-Oct-16 13:24 146 5 gusting 10 20.6
2018-Oct-16 13:19 148 7 gusting 15 20.6
2018-Oct-16 13:04 129 6 gusting 13 20.6
2018-Oct-16 12:59 144 9 gusting 17 20.6
2018-Oct-16 12:54 144 7 gusting 13 20.6
2018-Oct-16 12:49 120 7 gusting 14 20.6
2018-Oct-16 12:39 132 9 gusting 13 21.7
2018-Oct-16 12:29 176 4 gusting 12 21.7
2018-Oct-16 12:24 142 6 gusting 13 21.7
2018-Oct-16 12:14 134 6 gusting 12 21.7
2018-Oct-16 12:09 129 5 gusting 12 21.7
2018-Oct-16 11:49 151 6 gusting 12 22.2
2018-Oct-16 11:44 132 7 gusting 11 23.3
2018-Oct-16 11:39 122 2 gusting 6 23.9
2018-Oct-16 11:29 344 6 gusting 10 24.4
2018-Oct-16 11:24 027 6 gusting 11 24.4
2018-Oct-16 11:19 006 6 gusting 12 25.0
2018-Oct-16 11:14 028 5 gusting 8 24.4
2018-Oct-16 11:09 356 5 gusting 10 24.4
2018-Oct-16 11:04 030 4 gusting 10 23.9
2018-Oct-16 10:59 051 6 gusting 12 23.9
2018-Oct-16 10:54 038 6 gusting 13 23.9
2018-Oct-16 10:44 025 6 gusting 12 23.9
2018-Oct-16 10:39 030 6 gusting 13 23.9
2018-Oct-16 10:34 033 8 gusting 13 23.9
2018-Oct-16 10:24 040 8 gusting 17 23.3
2018-Oct-16 10:19 347 4 gusting 8 23.3
2018-Oct-16 10:14 349 6 gusting 13 22.8
2018-Oct-16 10:04 22.8
2018-Oct-16 09:59 336 6 gusting 13 22.2
2018-Oct-16 09:44 317 8 gusting 17 22.2
2018-Oct-16 09:39 324 10 gusting 17 21.7
2018-Oct-16 09:34 323 6 gusting 11 21.7
2018-Oct-16 09:29 020 6 gusting 14 21.1
2018-Oct-16 09:09 001 7 gusting 14 21.1
2018-Oct-16 09:04 340 6 gusting 11 20.6
2018-Oct-16 08:59 019 7 gusting 12 20.0
2018-Oct-16 08:54 326 12 gusting 17 20.0
2018-Oct-16 08:49 357 8 gusting 13 20.0
2018-Oct-16 08:44 026 5 gusting 11 20.0
2018-Oct-16 08:39 008 7 gusting 13 19.4
2018-Oct-16 08:34 025 6 gusting 14 18.3
2018-Oct-16 08:29 330 4 gusting 11 17.8
2018-Oct-16 08:24 311 6 gusting 11 16.7
2018-Oct-16 08:19 337 5 gusting 7 16.1
2018-Oct-16 08:14 335 6 gusting 10 16.1
2018-Oct-16 08:04 331 4 gusting 10 15.6
2018-Oct-16 07:59 333 6 gusting 8 15.0
2018-Oct-16 07:54 333 2 gusting 5 15.0
2018-Oct-16 07:49 333 4 gusting 6 15.0
2018-Oct-16 07:29 316 5 gusting 6 15.0
2018-Oct-16 07:24 315 5 gusting 6 15.0
2018-Oct-16 07:19 315 4 gusting 6 15.0
2018-Oct-16 06:54 311 3 gusting 5 15.0
2018-Oct-16 06:39 312 4 gusting 6 14.4
2018-Oct-16 06:34 313 4 gusting 6 14.4
2018-Oct-16 06:29 311 4 gusting 6 14.4
2018-Oct-16 06:19 311 14.4
2018-Oct-16 06:14 311 1 gusting 5 14.4
2018-Oct-16 05:59 313 3 gusting 6 14.4
2018-Oct-16 05:49 309 3 gusting 6 14.4
2018-Oct-16 05:44 310 1 gusting 5 14.4
2018-Oct-16 05:39 309 2 gusting 2 14.4
2018-Oct-16 05:34 309 1 gusting 4 15.0
2018-Oct-16 05:19 308 5 gusting 6 15.0
2018-Oct-16 05:14 310 4 gusting 6 15.0
2018-Oct-16 05:09 311 15.0
2018-Oct-16 05:04 311 15.0
2018-Oct-16 04:54 311 15.0
2018-Oct-16 04:49 311 15.0
2018-Oct-16 04:34 311 14.4
2018-Oct-16 04:29 311 14.4
2018-Oct-16 04:14 311 14.4
2018-Oct-16 04:09 311 14.4
2018-Oct-16 03:54 311 14.4
2018-Oct-16 03:49 311 14.4
2018-Oct-16 03:34 311 14.4
2018-Oct-16 03:29 311 14.4
2018-Oct-16 03:19 311 0 gusting 1 14.4
2018-Oct-16 03:14 311 1 gusting 2 14.4
2018-Oct-16 03:09 311 1 gusting 2 14.4
2018-Oct-16 03:04 311 2 gusting 4 14.4
2018-Oct-16 02:59 311 1 gusting 2 14.4
2018-Oct-16 02:54 311 0 gusting 2 14.4
2018-Oct-16 02:49 311 0 gusting 2 14.4
2018-Oct-16 02:39 311 14.4
2018-Oct-16 02:34 311 14.4
2018-Oct-16 02:29 311 0 gusting 2 14.4
2018-Oct-16 02:19 311 0 gusting 2 14.4
2018-Oct-16 02:14 311 2 gusting 4 14.4
2018-Oct-16 02:09 313 1 gusting 4 14.4
2018-Oct-16 02:04 313 2 gusting 4 14.4
2018-Oct-16 01:49 313 14.4
2018-Oct-16 01:39 313 14.4
2018-Oct-16 01:34 313 14.4
2018-Oct-16 01:29 313 14.4
2018-Oct-16 01:24 313 14.4
2018-Oct-16 01:19 313 14.4
2018-Oct-16 01:14 313 3 gusting 5 14.4
2018-Oct-16 01:09 313 1 gusting 2 14.4
2018-Oct-16 01:04 313 0 gusting 5 14.4
2018-Oct-16 00:59 313 1 gusting 4 14.4
2018-Oct-16 00:54 313 3 gusting 5 14.4
2018-Oct-16 00:49 313 4 gusting 6 14.4
2018-Oct-16 00:39 313 2 gusting 5 14.4
2018-Oct-16 00:34 313 4 gusting 6 14.4
2018-Oct-16 00:29 218 0 gusting 2 14.4
2018-Oct-16 00:24 209 14.4
2018-Oct-16 00:14 209 14.4
2018-Oct-16 00:09 209 14.4
2018-Oct-16 00:04 209 14.4
2018-Oct-15 23:59 209 14.4
2018-Oct-15 23:49 209 14.4
2018-Oct-15 23:39 222 0 gusting 4 14.4
2018-Oct-15 23:34 292 1 gusting 2 14.4
2018-Oct-15 23:09 292 14.4
2018-Oct-15 22:54 292 5 gusting 7 14.4
2018-Oct-15 22:44 130 0 gusting 2 14.4
2018-Oct-15 22:39 129 13.9
2018-Oct-15 22:34 129 13.9
2018-Oct-15 22:29 129 13.9
2018-Oct-15 22:24 129 13.9
2018-Oct-15 22:19 129 13.9
2018-Oct-15 22:14 129 13.9
2018-Oct-15 22:09 129 13.9
2018-Oct-15 22:04 129 13.9
2018-Oct-15 21:44 129 13.9
2018-Oct-15 21:39 129 13.9
2018-Oct-15 21:34 129 13.9
2018-Oct-15 21:29 129 13.9
2018-Oct-15 21:14 129 13.9
2018-Oct-15 21:04 117 6 gusting 10 13.3
2018-Oct-15 20:59 124 10 gusting 12 13.3
2018-Oct-15 20:49 130 13.9
2018-Oct-15 20:34 046 1 gusting 2 14.4
2018-Oct-15 20:29 324 14.4
2018-Oct-15 20:24 324 14.4
2018-Oct-15 20:19 324 14.4
2018-Oct-15 20:14 324 14.4
2018-Oct-15 20:09 324 14.4
2018-Oct-15 20:04 324 14.4
2018-Oct-15 19:54 324 14.4
2018-Oct-15 19:49 324 14.4
2018-Oct-15 19:44 324 14.4
2018-Oct-15 19:39 324 0 gusting 4 14.4
2018-Oct-15 19:34 324 14.4
2018-Oct-15 19:29 326 5 gusting 6 14.4
2018-Oct-15 19:24 346 0 gusting 4 14.4
2018-Oct-15 19:19 346 2 gusting 5 14.4
2018-Oct-15 18:59 026 15.0
2018-Oct-15 18:44 268 1 gusting 2 15.0
2018-Oct-15 18:39 264 0 gusting 2 15.6
2018-Oct-15 18:29 263 15.6
2018-Oct-15 18:19 249 1 gusting 4 15.6
2018-Oct-15 18:14 240 15.6
2018-Oct-15 18:09 230 0 gusting 2 15.6
2018-Oct-15 18:04 093 15.6